Norman Wells, Northwest Territories

12:32 AM MDT on August 17, 2017 (GMT -0600)
Norman Wells

Weather History for CYVQ - December, 2013

Change the Weather History Date:

Wednesday, December 4, 2013

  Actual Average Record
Temperature  
Mean Temperature -3 °F -  
Max Temperature 0 °F -7 °F 19 °F (2002)
Min Temperature -6 °F -22 °F -38 °F (2004)
Degree Days  
Heating Degree Days 68    
Moisture  
Dew Point -6 °F    
Average Humidity 79    
Maximum Humidity 85    
Minimum Humidity 67    
Precipitation  
Precipitation 0.02 in 0.02 in - ()
Sea Level Pressure  
Sea Level Pressure 30.62 in    
Wind  
Wind Speed 6 mph ()    
Max Wind Speed 12 mph    
Max Gust Speed -    
Visibility 9.5 miles    
Events Snow    
Averages and records for this station are not official NWS values.
T = Trace of Precipitation, MM = Missing Value Source: Averaged Metar Reports

Daily Weather History Graph

Daily Weather History Graph

Search for Another Location

Airport or City:

Trip Planner

Search our weather history database for the weather conditions in past years. The results will help you decide how hot, cold, wet, or windy it might be!

Date:

Astronomy

Dec. 04, 2013 Rise Set
Actual Time 11:12 AM MST 3:22 PM MST
Civil Twilight 9:51 AM MST 4:43 PM MST
Nautical Twilight 8:40 AM MST 5:54 PM MST
Astronomical Twilight 7:38 AM MST 6:55 PM MST
Moon 12:17 PM MST (12/4) 6:12 PM MST (12/4)
Length of Visible Light 6h 52m
Length of Day
4h 10m
Waxing Crescent, 5% of the Moon is Illuminated
Dec 4
Waxing Crescent
Dec 9
First Quarter
Dec 17
Full
Dec 25
Last Quarter
Jan 1
New

Hourly Weather History & Observations

Time (MST) Temp. Windchill Dew Point Humidity Pressure Visibility Wind Dir Wind Speed Gust Speed Precip Events Conditions
12:00 AM -2.2 °F -14.2 °F -5.8 °F 85% 30.60 in 30.0 mi East 5.8 mph - N/A   Scattered Clouds
1:00 AM -2.2 °F -18.0 °F -5.8 °F 85% 30.59 in 30.0 mi ESE 9.2 mph - N/A   Scattered Clouds
2:00 AM -2.2 °F -15.6 °F -5.8 °F 85% 30.58 in 30.0 mi East 6.9 mph - N/A   Scattered Clouds
3:00 AM -0.4 °F -14.7 °F -5.8 °F 78% 30.56 in 30.0 mi East 8.1 mph - N/A   Scattered Clouds
4:00 AM -2.2 °F -14.2 °F -5.8 °F 85% 30.55 in 30.0 mi East 5.8 mph - N/A   Scattered Clouds
5:00 AM -1 °F - -5 °F 74% 30.53 in 28 mi East 4.6 mph - -   Scattered Clouds
5:00 AM -0.4 °F -10.4 °F -5.8 °F 78% 30.53 in 30.0 mi East 4.6 mph - N/A   Mostly Cloudy
6:00 AM -0.4 °F -13.4 °F -4.0 °F 85% 30.53 in 30.0 mi East 6.9 mph - N/A   Mostly Cloudy
7:00 AM 1.4 °F -12.5 °F -4.0 °F 78% 30.53 in 30.0 mi East 8.1 mph - N/A   Mostly Cloudy
8:00 AM -0.4 °F -12.0 °F -4.0 °F 85% 30.53 in 30.0 mi ESE 5.8 mph - N/A   Mostly Cloudy
9:00 AM -0.4 °F -12.0 °F -5.8 °F 78% 30.53 in 30.0 mi ESE 5.8 mph - N/A   Mostly Cloudy
10:00 AM -0.4 °F -17.6 °F -5.8 °F 78% 30.54 in 30.0 mi ESE 11.5 mph - N/A   Overcast
11:00 AM 0 °F - -5 °F 67% 30.56 in 28 mi ESE 6.9 mph - -   Overcast
11:00 AM -0.4 °F -13.4 °F -5.8 °F 78% 30.56 in 30.0 mi ESE 6.9 mph - N/A   Overcast
11:03 AM -0.4 °F -15.7 °F -5.8 °F 78% 30.56 in 20.0 mi ESE 9.2 mph - N/A Snow Light Snow
12:00 PM -0.4 °F -13.4 °F -5.8 °F 78% 30.57 in 4.0 mi ESE 6.9 mph - N/A Snow Light Snow
1:00 PM -0.4 °F -12.0 °F -4.0 °F 85% 30.59 in 5.0 mi ESE 5.8 mph - N/A Snow Light Snow
2:00 PM -0.4 °F -13.4 °F -5.8 °F 78% 30.61 in 4.0 mi ESE 6.9 mph - N/A Snow Light Snow
3:00 PM -0.4 °F -13.4 °F -4.0 °F 85% 30.63 in 4.0 mi ESE 6.9 mph - N/A Snow Light Snow
4:00 PM -0.4 °F -8.3 °F -5.8 °F 78% 30.65 in 15.0 mi East 3.5 mph - N/A Snow Light Snow
5:00 PM -1 °F - -5 °F 72% 30.68 in 10 mi East 3.5 mph - - Snow Light Snow
5:00 PM -0.4 °F -8.3 °F -5.8 °F 78% 30.68 in 10.0 mi East 3.5 mph - N/A Snow Light Snow
6:00 PM -2.2 °F -10.4 °F -5.8 °F 85% 30.70 in 10.0 mi ENE 3.5 mph - N/A Snow Light Snow
7:00 PM -2.2 °F -10.4 °F -7.6 °F 78% 30.71 in 10.0 mi East 3.5 mph - N/A Snow Light Snow
8:00 PM -2.2 °F -15.6 °F -7.6 °F 78% 30.73 in 10.0 mi East 6.9 mph - N/A Snow Light Snow
9:00 PM -2.2 °F -10.4 °F -7.6 °F 78% 30.75 in 10.0 mi East 3.5 mph - N/A Snow Light Snow
10:00 PM -2.2 °F -15.6 °F -9.4 °F 71% 30.76 in 10.0 mi ESE 6.9 mph - N/A Snow Light Snow
11:00 PM -3 °F - -8 °F 67% 30.78 in 10 mi ESE 4.6 mph - - Snow Light Snow
11:00 PM -2.2 °F -10.4 °F -7.6 °F 78% 30.78 in 10.0 mi ESE 3.5 mph - N/A Snow Light Snow